Time,TemperatureF,DewpointF,PressureIn,WindDirection,WindDirectionDegrees,WindSpeedMPH,WindSpeedGustMPH,Humidity,HourlyPrecipIn,Conditions,Clouds,dailyrainin,SoftwareType,DateUTC
2015-07-03 00:00:00,68.4,67.8,29.91,SE,127,1.0,1.0,98,0.00,,---,0.00,VWS V15.00,2015-07-03 04:00:00,
2015-07-03 00:05:00,68.5,67.9,29.91,SE,131,1.0,2.0,98,0.00,,---,0.00,VWS V15.00,2015-07-03 04:05:00,
2015-07-03 00:10:00,68.4,67.8,29.91,SE,136,1.0,2.0,98,0.00,,---,0.00,VWS V15.00,2015-07-03 04:10:00,
2015-07-03 00:15:00,68.4,67.8,29.91,SE,137,1.0,2.0,98,0.00,,---,0.00,VWS V15.00,2015-07-03 04:15:00,
2015-07-03 00:20:00,68.3,67.7,29.91,SE,144,1.0,2.0,98,0.00,,---,0.00,VWS V15.00,2015-07-03 04:20:00,
2015-07-03 00:25:00,68.3,67.7,29.91,SE,145,1.0,2.0,98,0.00,,---,0.00,VWS V15.00,2015-07-03 04:25:00,
2015-07-03 00:30:00,68.3,67.7,29.91,SE,142,1.0,1.0,98,0.00,,---,0.00,VWS V15.00,2015-07-03 04:30:00,
2015-07-03 00:35:00,68.3,67.7,29.91,SE,141,1.0,2.0,98,0.00,,---,0.00,VWS V15.00,2015-07-03 04:35:00,
2015-07-03 00:40:00,68.3,67.7,29.91,SE,131,1.0,2.0,98,0.00,,---,0.00,VWS V15.00,2015-07-03 04:40:00,
2015-07-03 00:45:00,68.3,67.7,29.91,SE,140,1.0,2.0,98,0.00,,---,0.00,VWS V15.00,2015-07-03 04:45:00,
2015-07-03 00:50:00,68.3,67.7,29.90,SE,125,1.0,2.0,98,0.00,,---,0.00,VWS V15.00,2015-07-03 04:50:00,
2015-07-03 00:55:00,68.3,67.7,29.90,SE,143,1.0,2.0,98,0.00,,---,0.00,VWS V15.00,2015-07-03 04:55:00,
2015-07-03 01:00:00,68.3,67.7,29.90,SE,143,1.0,1.0,98,0.00,,---,0.00,VWS V15.00,2015-07-03 05:00:00,
2015-07-03 01:05:00,68.4,67.8,29.90,ESE,122,1.0,2.0,98,0.00,,---,0.00,VWS V15.00,2015-07-03 05:05:00,
2015-07-03 01:10:00,68.4,67.8,29.90,SE,139,0.0,3.0,98,0.00,,---,0.00,VWS V15.00,2015-07-03 05:10:00,
2015-07-03 01:15:00,68.4,67.8,29.90,SE,143,0.0,1.0,98,0.00,,---,0.00,VWS V15.00,2015-07-03 05:15:00,
2015-07-03 01:20:00,68.5,67.9,29.90,SE,135,1.0,2.0,98,0.00,,---,0.00,VWS V15.00,2015-07-03 05:20:00,
2015-07-03 01:25:00,68.5,67.9,29.89,SE,128,1.0,2.0,98,0.00,,---,0.00,VWS V15.00,2015-07-03 05:25:00,
2015-07-03 01:30:00,68.5,67.9,29.89,SE,143,0.0,1.0,98,0.00,,---,0.00,VWS V15.00,2015-07-03 05:30:00,
2015-07-03 01:35:00,68.5,67.9,29.89,WNW,287,0.0,1.0,98,0.00,,---,0.00,VWS V15.00,2015-07-03 05:35:00,
2015-07-03 01:40:00,68.5,67.9,29.89,SE,133,1.0,2.0,98,0.00,,---,0.00,VWS V15.00,2015-07-03 05:40:00,
2015-07-03 01:45:00,68.5,67.9,29.89,SSE,149,0.0,1.0,98,0.00,,---,0.00,VWS V15.00,2015-07-03 05:45:00,
2015-07-03 01:50:00,68.6,68.0,29.88,West,281,0.0,1.0,98,0.00,,---,0.00,VWS V15.00,2015-07-03 05:50:00,
2015-07-03 01:55:00,68.6,68.0,29.88,SSE,148,0.0,1.0,98,0.00,,---,0.00,VWS V15.00,2015-07-03 05:55:00,
2015-07-03 02:00:00,68.6,68.0,29.88,East,86,0.0,0.0,98,0.00,,---,0.00,VWS V15.00,2015-07-03 06:00:00,
2015-07-03 02:05:00,68.7,68.1,29.88,ESE,118,0.0,1.0,98,0.00,,---,0.00,VWS V15.00,2015-07-03 06:05:00,
2015-07-03 02:10:00,68.7,68.1,29.88,ESE,119,0.0,1.0,98,0.00,,---,0.00,VWS V15.00,2015-07-03 06:10:00,
2015-07-03 02:15:00,68.8,68.2,29.88,SE,143,1.0,1.0,98,0.00,,---,0.00,VWS V15.00,2015-07-03 06:15:00,
2015-07-03 02:20:00,68.8,68.2,29.87,SE,141,1.0,3.0,98,0.00,,---,0.00,VWS V15.00,2015-07-03 06:20:00,
2015-07-03 02:25:00,68.9,68.3,29.87,SE,141,0.0,3.0,98,0.00,,---,0.00,VWS V15.00,2015-07-03 06:25:00,
2015-07-03 02:30:00,68.9,68.3,29.87,SE,130,0.0,1.0,98,0.00,,---,0.00,VWS V15.00,2015-07-03 06:30:00,
2015-07-03 02:35:00,68.9,68.3,29.87,WNW,298,1.0,2.0,98,0.00,,---,0.00,VWS V15.00,2015-07-03 06:35:00,
2015-07-03 02:40:00,69.0,68.4,29.86,SE,145,1.0,2.0,98,0.00,,---,0.00,VWS V15.00,2015-07-03 06:40:00,
2015-07-03 02:45:00,69.0,68.4,29.86,SSE,150,1.0,1.0,98,0.00,,---,0.00,VWS V15.00,2015-07-03 06:45:00,
2015-07-03 02:50:00,69.0,68.4,29.86,SE,141,1.0,1.0,98,0.00,,---,0.00,VWS V15.00,2015-07-03 06:50:00,
2015-07-03 02:55:00,69.1,68.5,29.86,SE,139,0.0,3.0,98,0.00,,---,0.00,VWS V15.00,2015-07-03 06:55:00,
2015-07-03 03:00:00,69.1,68.5,29.87,SE,126,0.0,1.0,98,0.00,,---,0.00,VWS V15.00,2015-07-03 07:00:00,
2015-07-03 03:05:00,69.2,68.6,29.86,West,260,0.0,3.0,98,0.00,,---,0.00,VWS V15.00,2015-07-03 07:05:00,
2015-07-03 03:10:00,69.3,68.7,29.86,SW,235,0.0,3.0,98,0.00,,---,0.00,VWS V15.00,2015-07-03 07:10:00,
2015-07-03 03:15:00,69.4,68.8,29.86,SSE,160,0.0,2.0,98,0.00,,---,0.00,VWS V15.00,2015-07-03 07:15:00,
2015-07-03 03:20:00,69.5,68.9,29.87,SSE,154,1.0,2.0,98,0.00,,---,0.00,VWS V15.00,2015-07-03 07:20:00,
2015-07-03 03:25:00,69.5,68.9,29.87,SSE,154,0.0,2.0,98,0.00,,---,0.00,VWS V15.00,2015-07-03 07:25:00,
2015-07-03 03:30:00,69.6,69.0,29.87,NNW,333,1.0,1.0,98,0.00,,---,0.00,VWS V15.00,2015-07-03 07:30:00,
2015-07-03 03:35:00,69.7,69.1,29.87,East,101,0.0,2.0,98,0.00,,---,0.00,VWS V15.00,2015-07-03 07:35:00,
2015-07-03 03:40:00,69.8,69.2,29.87,ESE,110,0.0,2.0,98,0.00,,---,0.00,VWS V15.00,2015-07-03 07:40:00,
2015-07-03 03:45:00,69.9,69.3,29.87,NNE,15,0.0,2.0,98,0.00,,---,0.00,VWS V15.00,2015-07-03 07:45:00,
2015-07-03 03:50:00,70.0,69.4,29.87,ESE,109,0.0,2.0,98,0.00,,---,0.00,VWS V15.00,2015-07-03 07:50:00,
2015-07-03 03:55:00,70.1,69.5,29.87,North,356,0.0,3.0,98,0.00,,---,0.00,VWS V15.00,2015-07-03 07:55:00,
2015-07-03 04:00:00,70.2,69.6,29.87,ENE,77,1.0,2.0,98,0.00,,---,0.00,VWS V15.00,2015-07-03 08:00:00,
2015-07-03 04:05:00,70.3,69.7,29.87,ENE,72,0.0,3.0,98,0.00,,---,0.00,VWS V15.00,2015-07-03 08:05:00,
2015-07-03 04:10:00,70.4,69.8,29.87,NNW,331,0.0,3.0,98,0.00,,---,0.00,VWS V15.00,2015-07-03 08:10:00,
2015-07-03 04:15:00,70.5,69.9,29.87,SW,218,0.0,6.0,98,0.00,,---,0.00,VWS V15.00,2015-07-03 08:15:00,
2015-07-03 04:20:00,70.6,70.0,29.87,SSE,148,0.0,6.0,98,0.00,,---,0.00,VWS V15.00,2015-07-03 08:20:00,
2015-07-03 04:25:00,70.7,70.1,29.87,SW,218,0.0,6.0,98,0.00,,---,0.00,VWS V15.00,2015-07-03 08:25:00,
2015-07-03 04:30:00,70.8,70.2,29.86,SSW,200,0.0,1.0,98,0.00,,---,0.00,VWS V15.00,2015-07-03 08:30:00,
2015-07-03 04:35:00,70.9,70.3,29.86,SSE,159,0.0,2.0,98,0.00,,---,0.00,VWS V15.00,2015-07-03 08:35:00,
2015-07-03 04:40:00,70.9,70.3,29.87,SE,138,0.0,2.0,98,0.00,,---,0.00,VWS V15.00,2015-07-03 08:40:00,
2015-07-03 04:50:00,71.1,70.5,29.88,NNE,25,0.0,4.0,98,0.00,,---,0.00,VWS V15.00,2015-07-03 08:50:00,
2015-07-03 04:55:00,71.1,70.5,29.88,WSW,238,0.0,4.0,98,0.00,,---,0.00,VWS V15.00,2015-07-03 08:55:00,
2015-07-03 05:00:00,71.2,70.6,29.87,SSE,148,0.0,2.0,98,0.00,,---,0.00,VWS V15.00,2015-07-03 09:00:00,
2015-07-03 05:05:00,71.2,70.6,29.88,SE,124,1.0,6.0,98,0.00,,---,0.00,VWS V15.00,2015-07-03 09:05:00,
2015-07-03 05:10:00,71.1,70.5,29.88,SE,124,1.0,6.0,98,0.00,,---,0.00,VWS V15.00,2015-07-03 09:10:00,
2015-07-03 05:15:00,71.1,70.5,29.88,SE,143,0.0,1.0,98,0.00,,---,0.00,VWS V15.00,2015-07-03 09:15:00,
2015-07-03 05:20:00,71.0,70.4,29.88,ESE,107,1.0,2.0,98,0.01,,---,0.01,VWS V15.00,2015-07-03 09:20:00,
2015-07-03 05:25:00,71.0,70.4,29.87,ESE,115,0.0,2.0,98,0.01,,---,0.01,VWS V15.00,2015-07-03 09:25:00,
2015-07-03 05:30:00,70.9,70.3,29.87,SE,138,1.0,1.0,98,0.01,,---,0.01,VWS V15.00,2015-07-03 09:30:00,
2015-07-03 05:35:00,70.9,70.3,29.87,ESE,117,2.0,6.0,98,0.01,,---,0.01,VWS V15.00,2015-07-03 09:35:00,
2015-07-03 05:40:00,70.8,70.2,29.87,SE,136,1.0,6.0,98,0.01,,---,0.01,VWS V15.00,2015-07-03 09:40:00,
2015-07-03 05:45:00,70.8,70.2,29.86,NW,312,0.0,1.0,98,0.01,,---,0.01,VWS V15.00,2015-07-03 09:45:00,
2015-07-03 05:50:00,70.8,70.2,29.86,WSW,249,1.0,3.0,98,0.01,,---,0.01,VWS V15.00,2015-07-03 09:50:00,
2015-07-03 05:55:00,70.7,70.1,29.87,SW,224,0.0,3.0,98,0.01,,---,0.01,VWS V15.00,2015-07-03 09:55:00,
2015-07-03 06:00:00,70.7,70.1,29.87,SE,131,1.0,1.0,98,0.01,,---,0.01,VWS V15.00,2015-07-03 10:00:00,
2015-07-03 06:05:00,70.6,70.0,29.87,SE,139,1.0,2.0,98,0.01,,---,0.01,VWS V15.00,2015-07-03 10:05:00,
2015-07-03 06:10:00,70.6,70.0,29.88,SSE,153,1.0,4.0,98,0.01,,---,0.01,VWS V15.00,2015-07-03 10:10:00,
2015-07-03 06:15:00,70.5,69.9,29.88,SE,146,0.0,3.0,98,0.01,,---,0.01,VWS V15.00,2015-07-03 10:15:00,
2015-07-03 06:20:00,70.4,69.8,29.88,ESE,114,1.0,3.0,98,0.01,,---,0.01,VWS V15.00,2015-07-03 10:20:00,
2015-07-03 06:25:00,70.3,69.7,29.88,SE,144,0.0,3.0,98,0.01,,---,0.01,VWS V15.00,2015-07-03 10:25:00,
2015-07-03 06:30:00,70.3,69.7,29.88,SSE,153,1.0,4.0,98,0.00,,---,0.01,VWS V15.00,2015-07-03 10:30:00,
2015-07-03 06:35:00,70.3,69.7,29.88,NNE,23,1.0,4.0,98,0.00,,---,0.01,VWS V15.00,2015-07-03 10:35:00,
2015-07-03 06:40:00,70.3,69.7,29.88,SE,141,1.0,4.0,98,0.00,,---,0.01,VWS V15.00,2015-07-03 10:40:00,
2015-07-03 06:45:00,70.3,69.7,29.88,ESE,110,1.0,2.0,98,0.00,,---,0.01,VWS V15.00,2015-07-03 10:45:00,
2015-07-03 06:50:00,70.2,69.6,29.88,SE,140,1.0,2.0,98,0.00,,---,0.01,VWS V15.00,2015-07-03 10:50:00,
2015-07-03 06:55:00,70.2,69.6,29.88,SSE,148,0.0,3.0,98,0.00,,---,0.01,VWS V15.00,2015-07-03 10:55:00,
2015-07-03 07:00:00,70.2,69.6,29.88,WSW,252,1.0,1.0,98,0.00,,---,0.01,VWS V15.00,2015-07-03 11:00:00,
2015-07-03 07:05:00,70.2,69.6,29.88,SE,138,0.0,2.0,98,0.00,,---,0.01,VWS V15.00,2015-07-03 11:05:00,
2015-07-03 07:10:00,70.2,69.6,29.88,SE,141,0.0,2.0,98,0.00,,---,0.01,VWS V15.00,2015-07-03 11:10:00,
2015-07-03 07:15:00,70.2,69.6,29.88,SE,141,0.0,2.0,98,0.00,,---,0.01,VWS V15.00,2015-07-03 11:15:00,
2015-07-03 07:20:00,70.3,69.7,29.88,ESE,113,1.0,2.0,98,0.00,,---,0.01,VWS V15.00,2015-07-03 11:20:00,
2015-07-03 07:25:00,70.3,69.7,29.88,SE,139,1.0,2.0,98,0.00,,---,0.01,VWS V15.00,2015-07-03 11:25:00,
2015-07-03 07:30:00,70.3,69.7,29.89,SE,139,1.0,1.0,98,0.00,,---,0.01,VWS V15.00,2015-07-03 11:30:00,
2015-07-03 07:35:00,70.4,69.8,29.88,ESE,123,0.0,2.0,98,0.00,,---,0.01,VWS V15.00,2015-07-03 11:35:00,
2015-07-03 07:40:00,70.4,69.8,29.89,SE,136,0.0,2.0,98,0.00,,---,0.01,VWS V15.00,2015-07-03 11:40:00,
2015-07-03 07:45:00,70.5,69.9,29.89,SE,135,0.0,6.0,98,0.00,,---,0.01,VWS V15.00,2015-07-03 11:45:00,
2015-07-03 07:50:00,70.5,69.9,29.89,SE,146,0.0,6.0,98,0.00,,---,0.01,VWS V15.00,2015-07-03 11:50:00,
2015-07-03 07:55:00,70.6,70.0,29.89,SSE,151,1.0,6.0,98,0.00,,---,0.01,VWS V15.00,2015-07-03 11:55:00,
2015-07-03 08:00:00,70.6,70.0,29.90,SSE,153,0.0,2.0,98,0.00,,---,0.01,VWS V15.00,2015-07-03 12:00:00,
2015-07-03 08:05:00,70.7,70.1,29.90,SE,141,0.0,2.0,98,0.00,,---,0.01,VWS V15.00,2015-07-03 12:05:00,
2015-07-03 08:10:00,70.6,69.7,29.90,SE,139,2.0,3.0,97,0.00,,---,0.01,VWS V15.00,2015-07-03 12:10:00,
2015-07-03 08:15:00,70.5,69.6,29.90,SE,131,0.0,2.0,97,0.00,,---,0.01,VWS V15.00,2015-07-03 12:15:00,
2015-07-03 08:21:00,70.5,69.6,29.90,SE,145,0.0,3.0,97,0.00,,---,0.01,VWS V15.00,2015-07-03 12:21:00,
2015-07-03 08:26:00,70.5,69.6,29.90,SE,141,1.0,3.0,97,0.00,,---,0.01,VWS V15.00,2015-07-03 12:26:00,
2015-07-03 08:31:00,70.5,69.6,29.90,SE,136,1.0,1.0,97,0.00,,---,0.01,VWS V15.00,2015-07-03 12:31:00,
2015-07-03 08:36:00,70.5,69.6,29.90,North,354,1.0,3.0,97,0.00,,---,0.01,VWS V15.00,2015-07-03 12:36:00,
2015-07-03 08:41:00,70.5,69.6,29.90,ENE,65,1.0,3.0,97,0.00,,---,0.01,VWS V15.00,2015-07-03 12:41:00,
2015-07-03 08:46:00,70.6,69.7,29.89,SE,133,1.0,1.0,97,0.00,,---,0.01,VWS V15.00,2015-07-03 12:46:00,
2015-07-03 08:51:00,70.6,69.4,29.90,SSE,150,2.0,2.0,96,0.00,,---,0.01,VWS V15.00,2015-07-03 12:51:00,
2015-07-03 08:56:00,70.6,69.4,29.89,ESE,118,1.0,4.0,96,0.00,,---,0.01,VWS V15.00,2015-07-03 12:56:00,
2015-07-03 09:01:00,70.7,69.5,29.89,SE,133,1.0,3.0,96,0.00,,---,0.01,VWS V15.00,2015-07-03 13:01:00,
2015-07-03 09:06:00,70.8,69.6,29.90,WSW,243,1.0,3.0,96,0.00,,---,0.01,VWS V15.00,2015-07-03 13:06:00,
2015-07-03 09:11:00,70.9,69.7,29.90,NW,322,0.0,3.0,96,0.00,,---,0.01,VWS V15.00,2015-07-03 13:11:00,
2015-07-03 09:16:00,71.0,69.5,29.90,SSE,150,0.0,1.0,95,0.00,,---,0.01,VWS V15.00,2015-07-03 13:16:00,
2015-07-03 09:21:00,71.2,70.0,29.90,SE,140,1.0,1.0,96,0.00,,---,0.01,VWS V15.00,2015-07-03 13:21:00,
2015-07-03 09:26:00,71.2,69.7,29.91,NNW,330,3.0,5.0,95,0.00,,---,0.01,VWS V15.00,2015-07-03 13:26:00,
2015-07-03 09:31:00,71.3,69.8,29.91,SSW,204,1.0,4.0,95,0.00,,---,0.01,VWS V15.00,2015-07-03 13:31:00,
2015-07-03 09:36:00,71.4,69.9,29.92,WSW,245,1.0,5.0,95,0.01,,---,0.02,VWS V15.00,2015-07-03 13:36:00,
2015-07-03 09:41:00,71.4,69.9,29.92,North,9,2.0,9.0,95,0.01,,---,0.02,VWS V15.00,2015-07-03 13:41:00,
2015-07-03 09:46:00,71.4,70.2,29.93,WSW,245,1.0,4.0,96,0.02,,---,0.03,VWS V15.00,2015-07-03 13:46:00,
2015-07-03 09:51:00,71.2,70.0,29.93,WSW,249,3.0,5.0,96,0.03,,---,0.04,VWS V15.00,2015-07-03 13:51:00,
2015-07-03 09:56:00,71.1,69.9,29.93,SW,225,3.0,9.0,96,0.03,,---,0.04,VWS V15.00,2015-07-03 13:56:00,
2015-07-03 10:01:00,70.9,69.7,29.92,NNW,336,3.0,8.0,96,0.04,,---,0.05,VWS V15.00,2015-07-03 14:01:00,
2015-07-03 10:06:00,70.7,69.5,29.92,NNW,346,1.0,8.0,96,0.04,,---,0.05,VWS V15.00,2015-07-03 14:06:00,
2015-07-03 10:11:00,70.5,69.3,29.92,SE,138,2.0,8.0,96,0.05,,---,0.06,VWS V15.00,2015-07-03 14:11:00,
2015-07-03 10:16:00,70.3,69.1,29.92,North,356,1.0,2.0,96,0.06,,---,0.07,VWS V15.00,2015-07-03 14:16:00,
2015-07-03 10:21:00,70.2,69.0,29.92,SW,235,0.0,4.0,96,0.07,,---,0.08,VWS V15.00,2015-07-03 14:21:00,
2015-07-03 10:26:00,70.1,68.9,29.92,West,259,1.0,4.0,96,0.08,,---,0.09,VWS V15.00,2015-07-03 14:26:00,
2015-07-03 10:31:00,70.1,69.2,29.92,NW,316,1.0,3.0,97,0.08,,---,0.09,VWS V15.00,2015-07-03 14:31:00,
2015-07-03 10:36:00,70.1,69.2,29.92,SSW,194,0.0,3.0,97,0.09,,---,0.10,VWS V15.00,2015-07-03 14:36:00,
2015-07-03 10:41:00,70.1,69.2,29.92,NNW,337,1.0,3.0,97,0.09,,---,0.10,VWS V15.00,2015-07-03 14:41:00,
2015-07-03 10:46:00,70.1,69.2,29.92,NNW,332,2.0,2.0,97,0.08,,---,0.10,VWS V15.00,2015-07-03 14:46:00,
2015-07-03 10:51:00,70.0,69.1,29.92,NW,323,0.0,5.0,97,0.09,,---,0.11,VWS V15.00,2015-07-03 14:51:00,
2015-07-03 10:56:00,70.0,69.1,29.92,West,277,0.0,5.0,97,0.09,,---,0.11,VWS V15.00,2015-07-03 14:56:00,
2015-07-03 11:01:00,70.0,69.1,29.92,NNW,329,0.0,3.0,97,0.07,,---,0.12,VWS V15.00,2015-07-03 15:01:00,
2015-07-03 11:06:00,69.9,69.0,29.92,West,276,0.0,3.0,97,0.08,,---,0.13,VWS V15.00,2015-07-03 15:06:00,
2015-07-03 11:11:00,70.0,69.1,29.92,West,267,0.0,3.0,97,0.08,,---,0.13,VWS V15.00,2015-07-03 15:11:00,
2015-07-03 11:16:00,70.2,69.6,29.92,West,260,3.0,3.0,98,0.07,,---,0.14,VWS V15.00,2015-07-03 15:16:00,
2015-07-03 11:21:00,70.4,69.8,29.92,West,269,2.0,3.0,98,0.07,,---,0.14,VWS V15.00,2015-07-03 15:21:00,
2015-07-03 11:26:00,70.6,70.0,29.92,West,263,0.0,3.0,98,0.07,,---,0.14,VWS V15.00,2015-07-03 15:26:00,
2015-07-03 11:31:00,70.7,70.1,29.92,WSW,255,0.0,3.0,98,0.05,,---,0.14,VWS V15.00,2015-07-03 15:31:00,
2015-07-03 11:36:00,70.8,70.2,29.92,WNW,284,3.0,3.0,98,0.05,,---,0.14,VWS V15.00,2015-07-03 15:36:00,
2015-07-03 11:41:00,70.8,69.9,29.93,WNW,295,1.0,4.0,97,0.06,,---,0.15,VWS V15.00,2015-07-03 15:41:00,
2015-07-03 11:46:00,70.9,70.3,29.92,SSW,198,0.0,1.0,98,0.05,,---,0.15,VWS V15.00,2015-07-03 15:46:00,
2015-07-03 11:51:00,71.0,70.4,29.92,WSW,242,0.0,1.0,98,0.06,,---,0.16,VWS V15.00,2015-07-03 15:51:00,
2015-07-03 11:56:00,71.0,70.4,29.92,NNE,27,0.0,3.0,98,0.06,,---,0.16,VWS V15.00,2015-07-03 15:56:00,
2015-07-03 12:01:00,71.1,70.5,29.92,ESE,119,0.0,1.0,98,0.05,,---,0.17,VWS V15.00,2015-07-03 16:01:00,
2015-07-03 12:06:00,71.1,70.5,29.92,SW,236,0.0,2.0,98,0.05,,---,0.17,VWS V15.00,2015-07-03 16:06:00,
2015-07-03 12:11:00,71.3,70.7,29.92,NNE,15,1.0,2.0,98,0.06,,---,0.18,VWS V15.00,2015-07-03 16:11:00,
2015-07-03 12:16:00,71.5,70.9,29.92,NW,316,0.0,3.0,98,0.05,,---,0.18,VWS V15.00,2015-07-03 16:16:00,
2015-07-03 12:21:00,71.7,71.1,29.93,WSW,238,0.0,3.0,98,0.05,,---,0.18,VWS V15.00,2015-07-03 16:21:00,
2015-07-03 12:26:00,71.6,70.7,29.93,WSW,245,1.0,4.0,97,0.06,,---,0.19,VWS V15.00,2015-07-03 16:26:00,
2015-07-03 12:31:00,71.4,70.5,29.92,West,269,1.0,3.0,97,0.06,,---,0.20,VWS V15.00,2015-07-03 16:31:00,
2015-07-03 12:36:00,71.0,70.1,29.93,SE,134,1.0,4.0,97,0.07,,---,0.21,VWS V15.00,2015-07-03 16:36:00,
2015-07-03 12:41:00,70.9,70.0,29.93,North,352,3.0,4.0,97,0.08,,---,0.22,VWS V15.00,2015-07-03 16:41:00,
2015-07-03 12:46:00,70.8,69.9,29.93,SW,231,4.0,7.0,97,0.07,,---,0.22,VWS V15.00,2015-07-03 16:46:00,
2015-07-03 12:51:00,70.8,69.9,29.94,West,264,1.0,9.0,97,0.08,,---,0.23,VWS V15.00,2015-07-03 16:51:00,
2015-07-03 12:56:00,70.8,69.9,29.93,WSW,243,1.0,9.0,97,0.08,,---,0.23,VWS V15.00,2015-07-03 16:56:00,
2015-07-03 13:01:00,70.9,70.0,29.93,SSW,211,4.0,4.0,97,0.07,,---,0.24,VWS V15.00,2015-07-03 17:01:00,
2015-07-03 13:06:00,70.9,70.0,29.93,West,278,1.0,7.0,97,0.07,,---,0.24,VWS V15.00,2015-07-03 17:06:00,
2015-07-03 13:11:00,71.0,70.1,29.93,NNW,330,1.0,7.0,97,0.07,,---,0.24,VWS V15.00,2015-07-03 17:11:00,
2015-07-03 13:16:00,71.1,70.2,29.93,NW,326,4.0,6.0,97,0.06,,---,0.24,VWS V15.00,2015-07-03 17:16:00,
2015-07-03 13:21:00,71.3,70.7,29.93,WSW,249,0.0,6.0,98,0.06,,---,0.24,VWS V15.00,2015-07-03 17:21:00,
2015-07-03 13:26:00,71.3,70.4,29.93,NNW,329,1.0,8.0,97,0.07,,---,0.25,VWS V15.00,2015-07-03 17:26:00,
2015-07-03 13:31:00,71.4,70.5,29.93,SE,136,0.0,6.0,97,0.06,,---,0.25,VWS V15.00,2015-07-03 17:31:00,
2015-07-03 13:36:00,71.6,70.7,29.93,North,6,6.0,6.0,97,0.06,,---,0.25,VWS V15.00,2015-07-03 17:36:00,
2015-07-03 13:41:00,71.8,70.9,29.93,SE,141,0.0,6.0,97,0.06,,---,0.25,VWS V15.00,2015-07-03 17:41:00,
2015-07-03 13:46:00,71.7,70.8,29.93,WSW,255,9.0,9.0,97,0.03,,---,0.25,VWS V15.00,2015-07-03 17:46:00,
2015-07-03 13:51:00,71.6,70.7,29.93,NW,320,2.0,9.0,97,0.03,,---,0.25,VWS V15.00,2015-07-03 17:51:00,
2015-07-03 13:56:00,71.6,70.7,29.92,West,271,2.0,9.0,97,0.03,,---,0.25,VWS V15.00,2015-07-03 17:56:00,
2015-07-03 14:01:00,71.4,70.2,29.92,NW,326,2.0,5.0,96,0.02,,---,0.25,VWS V15.00,2015-07-03 18:01:00,
2015-07-03 14:06:00,71.2,70.0,29.92,West,280,4.0,6.0,96,0.02,,---,0.25,VWS V15.00,2015-07-03 18:06:00,
2015-07-03 14:11:00,71.2,70.0,29.92,NW,315,0.0,6.0,96,0.02,,---,0.25,VWS V15.00,2015-07-03 18:11:00,
2015-07-03 14:16:00,71.1,69.9,29.92,WSW,248,0.0,3.0,96,0.01,,---,0.25,VWS V15.00,2015-07-03 18:16:00,
2015-07-03 14:21:00,71.1,69.9,29.91,West,264,1.0,4.0,96,0.01,,---,0.25,VWS V15.00,2015-07-03 18:21:00,
2015-07-03 14:26:00,71.0,69.8,29.92,WNW,291,0.0,4.0,96,0.01,,---,0.25,VWS V15.00,2015-07-03 18:26:00,
2015-07-03 14:31:00,71.0,69.8,29.91,SW,233,2.0,4.0,96,0.00,,---,0.25,VWS V15.00,2015-07-03 18:31:00,
2015-07-03 14:36:00,71.0,70.1,29.92,West,277,0.0,4.0,97,0.00,,---,0.25,VWS V15.00,2015-07-03 18:36:00,
2015-07-03 14:41:00,71.1,69.9,29.92,ESE,109,2.0,6.0,96,0.00,,---,0.25,VWS V15.00,2015-07-03 18:41:00,
2015-07-03 14:46:00,71.2,70.3,29.92,NW,306,1.0,1.0,97,0.00,,---,0.25,VWS V15.00,2015-07-03 18:46:00,
2015-07-03 14:51:00,71.2,70.0,29.91,WNW,284,0.0,3.0,96,0.00,,---,0.25,VWS V15.00,2015-07-03 18:51:00,
2015-07-03 14:56:00,71.2,70.0,29.91,ESE,121,0.0,3.0,96,0.00,,---,0.25,VWS V15.00,2015-07-03 18:56:00,
2015-07-03 15:01:00,71.2,70.0,29.90,SE,130,1.0,2.0,96,0.00,,---,0.25,VWS V15.00,2015-07-03 19:01:00,
2015-07-03 15:06:00,71.2,70.0,29.90,West,269,1.0,2.0,96,0.00,,---,0.25,VWS V15.00,2015-07-03 19:06:00,
2015-07-03 15:11:00,71.4,70.2,29.90,SE,135,1.0,3.0,96,0.00,,---,0.25,VWS V15.00,2015-07-03 19:11:00,
2015-07-03 15:16:00,71.5,70.3,29.89,SE,132,1.0,2.0,96,0.00,,---,0.25,VWS V15.00,2015-07-03 19:16:00,
2015-07-03 15:21:00,71.8,70.6,29.89,NNE,32,1.0,2.0,96,0.00,,---,0.25,VWS V15.00,2015-07-03 19:21:00,
2015-07-03 15:26:00,71.9,70.7,29.89,East,85,0.0,2.0,96,0.00,,---,0.25,VWS V15.00,2015-07-03 19:26:00,
2015-07-03 15:31:00,72.2,71.0,29.89,East,92,0.0,2.0,96,0.00,,---,0.25,VWS V15.00,2015-07-03 19:31:00,
2015-07-03 15:36:00,72.2,70.7,29.89,SSE,149,1.0,3.0,95,0.00,,---,0.25,VWS V15.00,2015-07-03 19:36:00,
2015-07-03 15:41:00,72.4,70.9,29.89,SSE,150,0.0,3.0,95,0.00,,---,0.25,VWS V15.00,2015-07-03 19:41:00,
2015-07-03 15:46:00,72.6,70.8,29.89,WNW,291,0.0,3.0,94,0.00,,---,0.25,VWS V15.00,2015-07-03 19:46:00,
2015-07-03 15:51:00,72.9,71.1,29.90,WSW,239,1.0,3.0,94,0.00,,---,0.25,VWS V15.00,2015-07-03 19:51:00,
2015-07-03 15:56:00,73.2,71.4,29.90,WNW,285,2.0,3.0,94,0.00,,---,0.25,VWS V15.00,2015-07-03 19:56:00,
2015-07-03 16:01:00,73.3,71.2,29.90,SW,231,1.0,4.0,93,0.00,,---,0.25,VWS V15.00,2015-07-03 20:01:00,
2015-07-03 16:06:00,73.5,71.7,29.90,WSW,242,0.0,4.0,94,0.00,,---,0.25,VWS V15.00,2015-07-03 20:06:00,
2015-07-03 16:11:00,73.7,71.6,29.90,WNW,298,2.0,6.0,93,0.00,,---,0.25,VWS V15.00,2015-07-03 20:11:00,
2015-07-03 16:16:00,74.0,71.8,29.90,ESE,109,0.0,2.0,93,0.00,,---,0.25,VWS V15.00,2015-07-03 20:16:00,
2015-07-03 16:21:00,74.3,71.5,29.90,WSW,257,1.0,5.0,91,0.00,,---,0.25,VWS V15.00,2015-07-03 20:21:00,
2015-07-03 16:26:00,74.8,72.0,29.90,NW,305,1.0,6.0,91,0.00,,---,0.25,VWS V15.00,2015-07-03 20:26:00,
2015-07-03 16:31:00,75.5,73.0,29.90,SW,224,1.0,3.0,92,0.00,,---,0.25,VWS V15.00,2015-07-03 20:31:00,
2015-07-03 16:36:00,76.0,72.5,29.90,NW,315,2.0,6.0,89,0.00,,---,0.25,VWS V15.00,2015-07-03 20:36:00,
2015-07-03 16:41:00,76.4,73.2,29.90,NNW,333,0.0,6.0,90,0.00,,---,0.25,VWS V15.00,2015-07-03 20:41:00,
2015-07-03 16:46:00,76.8,72.6,29.90,SE,126,0.0,2.0,87,0.00,,---,0.25,VWS V15.00,2015-07-03 20:46:00,
2015-07-03 16:51:00,76.7,72.5,29.90,ESE,106,3.0,4.0,87,0.00,,---,0.25,VWS V15.00,2015-07-03 20:51:00,
2015-07-03 16:56:00,76.3,72.2,29.90,SW,217,0.0,5.0,87,0.00,,---,0.25,VWS V15.00,2015-07-03 20:56:00,
2015-07-03 17:01:00,76.2,72.4,29.90,West,260,1.0,4.0,88,0.00,,---,0.25,VWS V15.00,2015-07-03 21:01:00,
2015-07-03 17:06:00,76.0,71.9,29.89,WNW,295,1.0,4.0,87,0.00,,---,0.25,VWS V15.00,2015-07-03 21:06:00,
2015-07-03 17:11:00,75.9,72.1,29.89,West,262,1.0,4.0,88,0.00,,---,0.25,VWS V15.00,2015-07-03 21:11:00,
2015-07-03 17:16:00,75.8,71.3,29.89,West,263,1.0,6.0,86,0.00,,---,0.25,VWS V15.00,2015-07-03 21:16:00,
2015-07-03 17:21:00,75.9,71.8,29.89,WSW,250,0.0,6.0,87,0.00,,---,0.25,VWS V15.00,2015-07-03 21:21:00,
2015-07-03 17:31:00,76.0,71.5,29.90,WSW,243,2.0,2.0,86,0.00,,---,0.25,VWS V15.00,2015-07-03 21:31:00,
2015-07-03 17:36:00,76.0,71.5,29.89,SW,215,1.0,5.0,86,0.00,,---,0.25,VWS V15.00,2015-07-03 21:36:00,
2015-07-03 17:41:00,76.1,71.6,29.90,NW,325,0.0,5.0,86,0.00,,---,0.25,VWS V15.00,2015-07-03 21:41:00,
2015-07-03 17:46:00,76.3,71.8,29.89,WSW,249,0.0,3.0,86,0.00,,---,0.25,VWS V15.00,2015-07-03 21:46:00,
2015-07-03 17:51:00,76.4,71.9,29.89,West,262,1.0,4.0,86,0.00,,---,0.25,VWS V15.00,2015-07-03 21:51:00,
2015-07-03 17:56:00,76.5,72.0,29.89,NW,319,1.0,4.0,86,0.00,,---,0.25,VWS V15.00,2015-07-03 21:56:00,
2015-07-03 18:01:00,76.6,71.8,29.89,West,271,0.0,2.0,85,0.00,,---,0.25,VWS V15.00,2015-07-03 22:01:00,
2015-07-03 18:06:00,76.7,72.2,29.89,West,273,1.0,3.0,86,0.00,,---,0.25,VWS V15.00,2015-07-03 22:06:00,
2015-07-03 18:11:00,76.7,72.2,29.89,WSW,252,0.0,4.0,86,0.00,,---,0.25,VWS V15.00,2015-07-03 22:11:00,
2015-07-03 18:16:00,76.7,71.9,29.89,WSW,257,1.0,2.0,85,0.00,,---,0.25,VWS V15.00,2015-07-03 22:16:00,
2015-07-03 18:21:00,76.8,72.3,29.89,WNW,283,1.0,5.0,86,0.00,,---,0.25,VWS V15.00,2015-07-03 22:21:00,
2015-07-03 18:26:00,76.9,71.7,29.88,NW,312,1.0,5.0,84,0.00,,---,0.25,VWS V15.00,2015-07-03 22:26:00,
2015-07-03 18:31:00,77.0,72.2,29.88,West,262,1.0,4.0,85,0.00,,---,0.25,VWS V15.00,2015-07-03 22:31:00,
2015-07-03 18:36:00,77.1,72.2,29.88,NNW,333,0.0,4.0,85,0.00,,---,0.25,VWS V15.00,2015-07-03 22:36:00,
2015-07-03 18:41:00,77.3,72.4,29.88,SW,234,1.0,4.0,85,0.00,,---,0.25,VWS V15.00,2015-07-03 22:41:00,
2015-07-03 18:46:00,77.5,72.6,29.88,SSE,148,0.0,1.0,85,0.00,,---,0.25,VWS V15.00,2015-07-03 22:46:00,
2015-07-03 18:51:00,77.5,73.0,29.88,ESE,114,0.0,1.0,86,0.00,,---,0.25,VWS V15.00,2015-07-03 22:51:00,
2015-07-03 18:56:00,77.6,73.1,29.88,SE,130,0.0,1.0,86,0.00,,---,0.25,VWS V15.00,2015-07-03 22:56:00,
2015-07-03 19:01:00,77.6,73.1,29.88,NE,53,1.0,1.0,86,0.00,,---,0.25,VWS V15.00,2015-07-03 23:01:00,
2015-07-03 19:06:00,77.5,73.0,29.88,SSE,153,0.0,4.0,86,0.00,,---,0.25,VWS V15.00,2015-07-03 23:06:00,
2015-07-03 19:12:00,77.5,73.0,29.88,SW,236,0.0,4.0,86,0.00,,---,0.25,VWS V15.00,2015-07-03 23:12:00,
2015-07-03 19:17:00,77.6,73.1,29.88,NW,322,1.0,3.0,86,0.00,,---,0.25,VWS V15.00,2015-07-03 23:17:00,
2015-07-03 19:22:00,77.7,73.2,29.88,West,259,1.0,4.0,86,0.00,,---,0.25,VWS V15.00,2015-07-03 23:22:00,
2015-07-03 19:27:00,77.6,73.1,29.88,NNW,329,1.0,5.0,86,0.00,,---,0.25,VWS V15.00,2015-07-03 23:27:00,
2015-07-03 19:32:00,77.5,73.0,29.88,NW,322,0.0,1.0,86,0.00,,---,0.25,VWS V15.00,2015-07-03 23:32:00,
2015-07-03 19:37:00,77.3,73.1,29.89,WNW,287,1.0,4.0,87,0.00,,---,0.25,VWS V15.00,2015-07-03 23:37:00,
2015-07-03 19:42:00,77.1,72.9,29.89,NW,306,1.0,5.0,87,0.00,,---,0.25,VWS V15.00,2015-07-03 23:42:00,